Location: Unspecified
(38.9820°N, 0.0000°E)
Time: 16:00:53
(UTC+00:00)

ISS - Visible Passes

Search period start: 19 October 2019 00:00
Search period end: 29 October 2019 00:00
Orbit: 411 x 421 km, 51.6° (Epoch: 19 October)

Date Brightness Start Highest point End Pass type
(mag) Time Alt. Az. Time Alt. Az. Time Alt. Az.
21 Oct -0.4 05:36:40 10° SSE 05:37:45 11° SE 05:38:52 10° ESE visible
23 Oct -1.9 05:33:56 10° SSW 05:36:59 33° SE 05:40:02 10° ENE visible
24 Oct -1.1 04:46:07 10° S 04:48:31 18° SE 04:50:56 10° E visible
25 Oct -0.6 03:59:44 10° SE 04:00:06 10° SE 04:00:29 10° ESE visible
25 Oct -3.8 05:33:00 10° SW 05:36:22 79° NW 05:39:44 10° NE visible
26 Oct -3.2 04:46:38 35° SSW 04:47:45 55° SE 04:51:04 10° ENE visible
27 Oct -1.2 04:00:39 21° E 04:00:39 21° E 04:02:12 10° ENE visible
27 Oct -2.8 05:33:34 15° W 05:35:54 31° NNW 05:38:57 10° NE visible
28 Oct -3.4 04:47:24 48° NNW 04:47:24 48° NNW 04:50:27 10° NE visible
